ECMWFFLT1_925_spd_021.txt.gz
Wind_Speed
8 9 9 10 10 11 11 12 13 13 14 14 14 14 13 14 14 14 15 17 16 15 16 16 17 18 20 21 21 20 20 19 17 16 15 14 13 13 13 14 15 16 16 17 19 20 21 22 23 24 26 27 29 30 31 32 33 34 35 37 38 39
4 5 6 7 7 8 8 9 11 12 12 13 12 12 13 14 14 13 14 16 18 21 21 20 20 20 20 20 20 22 22 22 22 21 20 18 16 15 15 15 15 16 16 17 18 19 20 21 22 24 25 26 28 29 30 31 32 34 35 35 36 37
3 3 4 5 5 5 5 6 7 7 8 9 10 11 12 14 14 13 13 14 16 21 24 24 23 22 21 20 20 21 23 23 24 24 23 22 20 18 17 16 15 15 15 16 17 18 19 21 22 23 24 25 27 28 29 30 31 32 34 34 35 36
3 3 3 4 4 5 5 4 5 5 6 8 9 11 12 12 13 13 14 14 14 16 19 22 24 24 24 23 22 22 23 22 23 23 24 23 23 22 20 18 17 16 16 16 17 18 19 20 21 22 23 25 27 28 29 30 30 31 33 34 35 36
2 2 3 3 4 4 5 5 5 5 6 7 8 10 11 11 12 12 13 14 14 14 14 17 21 24 26 27 26 25 23 22 22 22 22 22 23 23 23 22 20 19 17 17 17 18 19 19 20 21 22 24 26 27 28 29 30 32 32 33 34 35
2 2 3 3 4 5 5 6 6 7 7 8 9 10 11 11 11 12 13 13 14 13 13 15 18 20 23 24 26 26 26 24 22 21 21 21 22 23 23 23 23 21 20 19 18 18 19 19 20 21 22 24 25 27 28 28 30 32 33 34 34 34
3 3 4 4 4 5 5 6 7 7 8 9 10 11 12 12 12 12 12 13 14 13 14 14 15 16 18 19 21 23 26 26 25 25 24 22 22 22 22 22 22 21 21 21 20 20 20 20 20 21 22 23 25 26 28 28 29 30 32 34 35 35
4 5 5 5 6 6 7 7 7 8 8 9 9 10 11 12 13 13 13 14 14 14 15 15 15 15 15 17 20 22 24 25 27 29 28 26 25 22 21 21 21 20 20 21 21 21 21 21 21 21 23 24 25 26 28 29 30 31 31 33 34 35
4 5 6 6 7 8 9 9 10 10 10 10 10 9 9 10 12 13 13 14 14 14 15 16 16 16 18 19 21 23 24 24 26 28 28 28 28 26 23 22 20 20 20 20 20 21 21 22 22 22 23 24 25 27 28 30 31 32 33 34 34 34
4 5 6 6 7 8 9 10 11 11 12 13 13 13 13 14 14 14 13 13 13 13 14 15 16 17 20 24 26 27 28 28 30 30 28 27 28 27 27 26 23 22 21 20 20 20 20 20 22 23 23 24 25 26 27 29 30 32 34 35 36 36
5 6 7 7 7 8 8 8 9 9 11 13 15 16 18 20 21 19 16 15 14 13 14 16 16 15 19 26 29 30 31 32 33 32 29 30 30 28 29 28 26 25 24 22 21 20 19 19 20 22 23 24 26 27 28 28 28 30 32 34 35 36
6 7 8 8 8 8 8 8 8 8 9 11 12 13 15 19 22 21 19 18 17 17 17 19 18 17 21 26 28 30 32 33 33 30 28 31 33 30 29 27 27 27 26 25 24 22 21 20 20 20 21 22 24 27 30 31 30 30 31 32 33 34
6 7 8 8 9 9 8 9 9 9 10 10 11 10 11 15 19 20 20 22 23 23 25 25 23 23 28 31 30 30 32 33 32 29 28 30 31 31 29 28 28 28 26 25 24 24 23 22 21 21 21 22 22 24 27 31 33 32 32 32 33 34
6 6 7 8 8 9 9 9 9 10 11 11 11 11 11 13 15 17 19 22 25 28 30 30 27 27 31 34 34 33 34 34 31 29 29 29 30 31 31 30 29 28 28 27 26 25 24 25 24 23 23 23 22 22 24 28 31 32 33 33 33 34
7 8 8 9 9 9 10 10 10 11 12 12 12 12 12 12 13 15 17 19 22 26 28 27 26 27 30 33 35 35 36 37 35 33 31 30 31 32 32 31 30 29 30 28 27 27 27 27 28 27 26 26 25 24 24 26 29 31 33 35 35 35
8 9 10 10 10 11 11 11 11 12 12 12 12 13 14 14 15 16 19 21 22 22 23 24 25 27 28 31 33 34 35 35 36 36 34 32 33 34 33 34 34 32 31 29 28 29 30 29 31 32 31 29 28 26 24 26 29 31 33 35 36 36
9 9 10 11 11 11 12 12 13 13 13 13 14 16 18 19 19 19 20 23 25 24 24 25 26 26 28 30 31 32 34 34 35 36 34 31 32 33 34 35 35 35 34 33 31 32 33 33 34 37 37 33 30 28 25 25 28 30 32 35 36 37
9 10 10 10 10 11 12 13 13 13 14 15 16 19 21 22 23 23 22 24 26 26 25 25 26 27 27 29 29 31 33 35 36 36 33 30 30 31 33 35 34 34 36 36 34 33 35 36 36 35 36 34 32 30 27 26 28 29 31 33 35 36
9 8 8 9 11 11 11 12 13 14 16 17 18 20 22 23 23 23 23 25 25 25 26 25 26 28 28 28 29 31 33 35 36 37 35 33 32 32 33 34 34 34 35 36 36 35 35 38 37 34 33 35 34 31 29 28 28 28 31 33 33 34
7 8 9 10 11 11 11 13 15 15 16 17 18 20 20 21 21 21 23 24 24 24 25 25 26 28 29 30 31 32 33 34 34 36 36 34 33 34 33 32 34 37 36 35 37 37 36 39 41 38 34 36 37 34 30 29 28 28 30 32 32 33
8 10 11 11 13 14 14 15 15 15 16 17 19 19 18 19 21 21 22 24 24 23 24 26 28 29 30 32 33 34 35 35 35 35 36 34 32 33 32 29 31 38 39 38 39 39 37 39 43 42 37 36 37 36 32 29 27 27 29 31 31 31
10 11 13 14 15 15 15 14 15 16 17 18 19 18 18 20 21 22 23 25 25 26 27 28 30 32 33 34 35 35 36 36 35 34 34 32 31 33 33 31 32 37 41 41 41 41 41 41 44 46 43 38 36 36 34 30 28 28 29 30 30 30
9 12 14 14 14 15 15 16 18 18 18 18 18 18 20 21 23 24 25 26 28 30 31 31 32 33 35 36 36 37 37 36 35 34 34 34 33 35 36 36 36 37 39 42 44 45 46 46 46 49 49 43 38 37 37 34 31 31 31 30 29 30
12 13 13 12 13 14 16 17 19 19 18 18 18 19 21 23 25 26 27 28 30 32 33 34 35 35 35 36 37 37 38 38 37 37 37 36 36 38 38 39 39 37 36 39 43 45 48 48 48 49 51 48 43 40 39 38 37 36 35 31 30 30
13 13 13 12 12 14 15 17 20 18 16 18 20 21 24 25 26 27 28 30 32 34 35 35 35 34 34 35 36 36 38 39 39 39 38 37 37 37 38 39 38 36 34 35 37 39 44 47 47 46 49 50 48 44 42 42 42 42 39 34 32 33
12 15 16 13 12 14 16 18 20 19 19 22 24 24 25 27 27 28 29 30 32 34 35 35 35 35 34 34 35 35 37 39 39 38 37 36 36 35 35 35 34 31 32 33 33 34 39 42 43 44 45 47 48 46 43 43 45 45 41 38 36 36
14 18 20 17 14 16 18 18 20 23 25 26 25 23 25 28 30 30 30 32 33 33 34 35 36 35 35 34 33 33 35 35 35 34 32 31 32 32 32 32 31 29 29 30 30 31 34 36 38 39 40 42 43 43 41 42 43 43 41 38 38 38
17 18 20 20 16 16 18 19 19 21 24 25 26 26 27 30 31 31 32 33 34 33 34 35 34 33 32 32 30 30 31 32 32 31 30 29 29 30 30 30 30 29 28 28 29 30 31 32 34 35 36 38 39 40 40 40 39 39 39 39 39 41
16 16 18 20 18 16 18 18 18 20 23 26 28 29 29 31 30 30 32 32 32 31 31 30 30 31 31 30 28 28 29 30 29 30 30 28 28 28 29 29 29 28 27 27 28 28 30 32 32 32 33 35 35 36 37 37 36 36 36 36 37 39
15 16 18 20 20 18 18 19 20 23 26 28 29 30 32 32 29 28 31 32 30 29 28 28 29 30 30 29 29 28 29 29 29 30 29 29 29 29 29 29 29 29 28 28 28 28 29 31 33 33 33 34 33 31 30 29 30 30 31 32 33 35
15 17 18 20 21 20 21 22 25 28 29 30 30 30 32 32 28 28 30 29 27 27 27 27 29 29 29 30 30 30 31 30 30 32 33 32 32 32 33 34 33 32 31 30 30 29 28 28 30 31 31 32 33 32 30 28 27 26 26 28 30 30
15 18 20 21 20 21 23 25 28 30 30 30 30 29 30 31 29 27 27 26 26 27 27 28 28 29 29 31 31 31 32 31 31 32 35 35 35 35 37 39 39 38 37 35 35 34 34 35 37 36 36 35 36 35 34 33 31 29 27 27 27 26
16 19 20 21 21 22 25 27 30 31 31 31 29 29 29 29 27 26 26 26 27 28 28 28 29 29 29 30 30 30 31 32 31 31 32 35 37 37 38 40 42 42 41 41 41 40 41 44 45 44 43 42 40 39 39 38 38 35 32 29 26 23
17 18 21 23 24 26 28 30 32 32 32 31 30 29 29 29 27 27 29 29 29 30 29 29 29 29 29 29 29 29 29 30 30 28 29 31 33 35 37 38 40 41 41 42 44 43 42 42 43 44 44 43 41 40 40 39 40 39 37 34 29 23
17 20 23 25 27 28 30 32 33 32 31 31 30 30 31 32 30 29 30 31 30 29 29 28 28 29 28 28 28 28 28 27 27 26 26 28 30 32 34 35 37 39 39 40 42 42 42 42 43 43 44 43 42 41 40 38 38 37 36 36 31 23
20 22 25 27 29 30 30 31 33 33 32 31 32 32 33 34 32 30 29 31 31 30 29 29 28 28 28 27 27 28 27 27 27 26 26 27 26 26 28 30 32 34 35 36 37 38 39 40 39 38 39 39 40 40 40 40 39 37 35 35 32 25
22 25 28 30 30 28 28 31 34 33 32 32 32 33 33 33 31 28 27 28 29 29 28 28 27 27 27 27 27 27 27 28 28 27 26 26 24 23 24 27 29 30 32 33 34 35 36 37 36 36 36 35 35 36 36 36 35 32 30 30 30 26
25 27 27 27 27 26 28 32 34 33 31 31 32 31 30 29 27 25 24 25 26 26 26 27 27 27 27 27 27 27 28 28 28 27 27 27 26 25 26 27 28 30 32 34 34 34 34 35 34 34 34 34 36 37 34 30 28 25 23 23 25 25

ECMWFFLT1_925_spd_024.txt.gz
Wind_Speed
5 7 9 10 11 12 13 13 14 15 15 15 16 17 17 16 16 16 16 18 20 22 23 23 23 23 23 23 23 23 24 24 24 24 23 22 22 21 21 19 18 16 15 15 18 19 19 19 18 18 18 18 20 21 23 24 25 27 29 30 31 32
4 5 6 6 7 8 9 10 11 12 13 14 15 15 16 16 16 16 16 16 17 18 20 20 21 21 21 21 22 22 23 23 23 24 24 23 23 23 22 22 22 20 18 17 17 18 19 20 20 19 18 18 20 21 23 24 25 27 29 30 31 32
4 3 2 3 5 6 6 7 7 8 10 12 12 13 13 14 14 14 14 14 14 14 16 17 18 19 18 18 19 20 21 21 21 22 22 22 23 23 23 23 23 22 21 20 19 19 19 20 20 20 20 20 20 21 22 24 25 26 28 29 31 31
4 4 3 4 4 4 4 4 5 5 6 9 10 11 12 12 12 12 12 13 12 12 13 14 14 15 16 16 18 19 19 20 20 20 21 22 22 22 22 22 22 21 21 21 20 20 19 19 19 20 20 21 22 22 23 23 24 26 28 28 30 31
4 4 4 5 5 5 5 4 4 4 5 7 9 11 12 12 13 13 12 12 13 11 11 12 12 14 15 15 16 17 18 19 19 20 21 21 22 22 22 22 22 22 21 21 20 20 20 20 19 19 19 20 22 23 24 24 25 26 28 29 30 31
4 5 5 4 4 4 4 4 4 5 6 7 8 10 12 13 14 15 14 14 15 13 13 14 14 15 16 16 16 17 18 18 18 18 20 20 20 21 21 21 22 22 23 22 22 21 21 21 20 19 18 18 20 22 24 25 25 27 28 29 30 30
5 5 5 4 4 4 4 4 5 5 6 7 7 8 10 12 13 15 16 15 16 17 16 17 18 19 19 19 19 20 21 21 20 19 21 20 20 20 20 20 21 22 23 23 24 23 22 22 21 20 20 19 19 20 22 24 25 27 28 29 29 30
4 4 4 4 4 4 5 5 6 6 6 7 7 8 9 10 12 14 15 15 17 18 18 19 21 22 22 22 23 24 26 26 26 26 26 25 24 25 24 23 23 23 23 24 24 24 24 23 22 21 21 21 20 20 21 23 24 26 27 29 29 30
1 2 2 3 3 4 4 5 5 6 6 8 9 10 11 12 14 17 18 18 19 20 21 22 24 25 25 24 24 25 27 28 29 30 31 30 29 29 29 28 28 27 26 26 25 25 26 26 25 23 23 22 21 22 23 24 25 26 27 28 29 30
1 1 2 3 4 5 6 6 7 8 8 10 12 13 14 15 17 19 20 21 22 23 24 26 28 29 30 30 29 29 30 30 30 31 32 32 31 31 30 30 31 30 29 28 27 27 26 26 27 27 26 24 23 23 24 25 26 27 28 28 29 29
4 5 6 6 6 7 7 8 9 10 10 12 13 14 14 16 17 18 20 22 23 24 25 26 28 30 32 33 33 34 34 34 34 34 33 33 32 31 31 31 31 31 31 30 30 29 27 26 27 28 28 27 25 25 25 26 28 29 30 31 30 29
8 9 9 8 9 9 9 10 10 11 12 13 14 15 15 15 17 18 20 22 23 24 25 26 28 29 31 32 32 34 35 36 37 37 37 36 34 32 31 31 31 31 32 32 32 31 29 28 29 29 28 27 27 27 28 28 29 30 32 33 33 32
8 9 10 10 11 11 11 12 12 13 14 15 16 16 15 15 16 18 21 22 23 24 24 26 27 29 30 31 31 32 34 35 37 38 39 39 38 36 34 33 33 33 33 32 32 32 32 32 32 31 29 28 28 29 30 30 31 32 32 34 34 34
7 9 11 11 11 11 11 12 13 13 14 14 15 15 14 14 16 18 21 23 24 25 25 26 28 29 30 31 31 32 34 34 35 37 39 39 39 39 38 38 37 36 36 34 33 34 34 35 35 34 31 29 29 31 31 32 33 33 33 34 35 36
9 11 12 11 11 11 10 10 10 11 12 12 13 12 12 13 16 19 22 24 25 26 27 27 28 29 30 31 32 32 33 33 34 36 37 38 38 39 40 41 41 40 40 38 36 37 37 37 37 36 32 31 32 32 33 34 35 35 35 35 35 36
11 12 12 12 11 9 7 6 7 9 10 10 10 11 12 15 19 22 25 26 27 27 28 28 28 29 30 31 31 32 33 33 34 35 35 35 35 37 39 40 41 42 42 41 40 41 42 42 43 40 34 32 34 34 34 35 37 37 37 36 36 36
10 11 11 8 5 4 5 7 8 8 8 9 11 14 16 18 21 23 25 26 27 27 27 27 27 29 30 32 32 32 32 32 33 34 35 34 34 36 37 38 40 41 42 43 43 43 45 48 50 47 39 33 32 33 34 36 37 38 38 38 38 37
11 8 4 1 4 6 8 8 8 8 10 12 14 16 17 18 21 23 24 24 25 26 26 26 28 30 32 32 31 31 31 31 33 34 35 35 36 38 38 39 40 40 42 43 43 43 45 50 54 53 49 42 35 32 34 36 37 38 38 39 39 38
6 5 5 6 8 8 8 8 9 11 13 14 15 16 17 19 21 22 22 23 24 25 26 27 28 30 31 31 31 32 32 33 35 35 35 35 37 38 39 40 41 41 42 44 44 44 45 49 52 54 54 50 42 36 36 36 37 38 39 39 40 39
7 8 8 9 9 8 8 9 11 13 14 15 15 17 19 20 20 21 22 23 25 26 27 27 28 29 30 31 32 33 34 35 36 36 35 35 36 38 40 40 41 43 44 44 45 45 44 47 52 52 51 50 46 42 41 39 37 37 38 39 40 40
8 9 9 10 9 8 9 11 14 15 16 16 17 18 19 20 21 23 24 26 27 28 28 27 28 29 30 31 33 33 35 36 36 36 35 35 36 38 40 40 40 42 44 43 44 45 44 46 50 50 47 46 45 44 43 40 37 37 38 39 39 39
8 8 9 8 8 9 13 15 17 16 17 17 18 19 21 23 25 27 28 29 29 29 29 29 29 30 31 32 34 35 35 34 34 34 35 35 36 37 38 39 39 41 44 44 44 45 46 46 49 50 48 46 46 46 45 42 40 39 40 40 39 38
6 7 6 6 9 13 16 16 18 18 19 20 20 21 24 26 28 30 30 31 31 31 31 30 29 30 31 31 32 33 34 32 32 34 35 35 35 36 37 39 39 40 43 45 45 45 46 46 47 49 49 48 48 48 47 45 44 44 43 43 41 39
6 6 6 9 12 14 15 17 20 20 21 22 23 25 27 28 29 30 31 32 33 32 32 31 30 30 31 31 31 32 34 34 33 33 34 33 34 35 37 38 38 37 40 44 43 43 44 45 44 45 47 48 48 49 49 49 49 49 47 44 43 42
7 8 10 12 13 13 16 19 21 22 22 24 25 26 27 28 29 31 32 33 33 33 33 33 32 31 31 31 31 32 34 35 33 33 32 31 32 33 33 34 34 34 36 38 40 39 40 41 42 41 43 45 45 46 48 49 50 51 49 46 44 44
9 11 13 13 12 14 17 19 22 23 23 25 26 27 28 29 30 31 32 33 34 34 35 34 33 32 32 32 32 32 33 33 32 31 30 29 29 30 30 30 30 30 31 32 34 35 34 35 38 39 38 39 41 42 44 46 47 48 49 48 47 47
11 13 14 13 14 16 18 19 20 23 25 26 27 28 29 31 31 32 33 34 34 35 35 36 35 34 33 33 32 31 32 31 30 30 29 28 28 28 28 28 27 28 28 28 29 32 32 31 33 35 34 35 38 40 41 43 43 44 45 45 46 46
13 13 15 16 17 18 19 19 19 21 25 27 28 28 29 30 32 32 33 33 34 34 35 36 36 34 33 32 30 30 30 30 30 30 29 29 29 28 28 29 27 26 27 27 28 31 32 31 32 34 34 35 37 39 41 42 43 43 43 42 42 43
14 15 17 18 19 20 21 20 19 21 24 26 27 29 29 30 30 32 32 33 34 35 34 34 34 34 32 32 31 31 31 30 30 30 29 29 30 29 29 29 29 27 27 28 29 31 33 33 34 35 36 37 38 40 40 40 40 41 41 40 39 38
15 16 17 19 21 22 22 21 21 23 24 26 28 29 30 30 30 31 32 33 34 33 32 32 32 33 33 33 32 31 31 30 30 31 31 31 32 32 31 30 30 29 30 30 31 31 32 32 32 32 34 36 37 38 37 36 36 39 39 38 36 36
15 16 18 20 22 22 22 22 23 25 25 26 28 28 29 31 31 30 32 32 32 32 31 31 32 33 33 34 33 32 31 31 31 32 33 33 33 33 34 34 33 32 33 33 32 31 29 29 29 30 34 37 38 39 39 37 36 38 40 41 41 40
14 16 19 21 21 21 21 23 25 26 26 27 28 28 29 31 31 31 31 30 30 31 32 32 33 33 33 33 32 32 32 32 31 31 33 34 34 34 36 38 39 39 39 38 36 35 34 35 37 39 40 41 42 42 43 42 41 40 41 43 44 42
16 18 19 20 21 21 22 25 26 27 27 27 27 27 28 30 30 30 30 30 30 32 33 33 33 32 31 31 31 31 32 32 31 31 32 34 35 36 37 38 40 42 42 41 41 41 41 42 44 43 42 41 41 41 41 41 41 41 41 42 42 37
16 17 18 20 21 22 23 26 27 27 27 27 27 27 28 28 28 29 30 31 32 33 33 32 31 30 30 30 30 30 30 30 30 30 31 32 33 34 36 37 38 40 40 41 41 42 42 41 41 41 40 39 39 39 38 38 39 38 39 40 39 34
16 17 19 21 22 23 24 26 27 27 27 27 28 28 28 28 28 29 31 33 33 32 31 30 29 29 28 29 29 29 29 29 28 28 30 33 33 33 34 35 36 37 38 39 40 40 41 41 41 40 39 39 38 38 37 37 37 36 36 36 33 28
18 19 20 21 23 23 24 26 28 28 27 28 29 28 29 29 29 29 31 33 33 31 30 29 29 28 28 28 28 29 29 29 29 29 30 31 31 30 31 34 35 36 36 37 37 38 39 40 40 39 38 37 37 37 36 36 36 35 34 33 31 26
18 20 21 22 23 23 24 26 28 28 28 28 29 29 29 30 30 29 31 32 31 29 29 29 29 28 29 29 29 29 29 30 31 31 30 29 28 27 29 33 36 38 39 38 37 37 37 38 38 37 37 36 35 36 37 35 30 27 26 27 27 26
19 20 21 21 21 22 24 27 28 28 28 28 28 29 30 30 29 29 30 30 29 28 28 29 29 29 30 29 29 30 30 30 30 30 29 29 29 29 29 31 35 38 40 40 38 36 34 35 35 35 35 36 36 37 36 30 23 20 21 22 24 26

ECMWFFLT1_925_spd_030.txt.gz
Wind_Speed
11 11 11 11 11 11 11 11 11 11 12 13 14 14 14 13 13 14 15 16 16 15 16 17 17 18 19 19 19 20 21 21 22 23 23 24 24 25 25 26 26 26 26 26 26 26 25 25 25 25 26 26 26 25 24 23 22 22 23 22 22 22
12 12 13 12 11 11 10 10 10 11 11 12 13 13 13 13 12 12 11 11 12 12 12 14 15 15 16 17 17 19 20 21 22 23 23 23 24 24 24 24 25 26 27 27 28 28 28 28 27 27 26 26 26 26 27 27 26 25 25 24 24 24
14 13 13 12 12 11 10 10 9 10 11 11 13 13 13 13 12 12 10 9 9 10 10 10 12 13 14 15 16 17 19 19 20 22 22 23 23 23 24 24 24 25 26 26 27 27 28 29 29 30 29 29 28 27 27 28 28 29 29 27 27 26
15 14 13 12 12 12 12 10 9 9 9 9 10 11 12 11 11 11 10 10 9 10 10 9 11 12 13 15 16 17 18 19 20 20 21 22 22 23 24 25 25 26 26 26 27 27 27 28 28 29 31 31 32 32 31 30 29 30 30 30 31 30
16 15 14 13 13 13 13 11 10 8 7 7 7 8 9 9 9 10 10 10 9 10 10 10 11 13 14 15 17 18 19 19 20 20 21 22 23 24 25 26 27 27 28 28 28 28 28 29 29 29 30 30 32 33 34 35 34 33 32 32 32 32
15 15 14 13 13 13 13 12 10 9 7 6 6 6 6 7 7 7 7 7 7 8 9 11 12 14 16 17 18 20 20 21 22 22 22 23 24 25 26 27 28 28 29 29 30 30 30 30 31 31 31 31 32 33 34 35 36 36 36 36 35 34
13 14 14 14 15 14 13 12 11 10 9 7 6 5 5 5 4 4 4 4 6 8 10 12 14 16 18 19 21 22 23 24 24 24 25 25 26 27 28 29 30 30 30 30 30 31 31 31 32 32 33 33 33 34 35 35 36 37 38 39 39 38
11 14 15 17 16 15 14 13 12 11 9 7 6 5 4 4 2 1 3 6 8 10 12 14 16 18 20 22 24 25 25 26 26 27 27 28 28 30 30 31 32 31 32 32 32 31 32 32 32 32 32 33 33 33 34 34 35 36 37 38 39 40
11 15 17 18 17 15 14 14 13 13 11 9 8 7 4 3 2 3 6 8 9 11 12 14 16 18 21 23 26 27 28 27 28 28 29 29 30 32 33 33 33 33 33 33 33 33 32 32 33 33 32 32 31 31 32 33 34 35 36 37 38 39
10 15 18 18 16 15 15 15 14 14 12 10 9 7 5 5 5 6 7 8 9 11 13 15 17 19 22 25 28 29 30 29 30 30 31 31 31 32 33 34 35 36 35 34 34 33 33 34 34 34 32 31 30 30 31 33 34 35 36 36 38 38
10 14 17 17 17 17 17 16 16 14 13 11 9 8 8 7 7 7 7 8 10 12 14 16 19 21 25 27 29 30 31 31 32 33 34 35 35 35 35 36 36 35 36 36 35 35 35 34 35 35 31 30 30 31 31 32 32 33 34 35 37 38
12 15 16 17 19 20 19 18 17 16 14 13 11 11 10 9 8 7 7 8 10 13 15 18 21 24 27 29 30 31 31 32 34 36 37 38 39 39 39 39 38 36 36 36 37 37 36 36 37 35 30 28 29 30 31 32 33 33 34 35 37 38
12 14 16 19 21 21 21 20 18 17 15 14 12 11 9 8 7 6 6 8 11 13 16 20 23 26 28 29 30 31 32 33 35 36 37 39 39 40 39 39 39 39 37 36 37 38 39 39 39 34 30 29 30 30 31 33 35 35 36 36 37 39
10 13 16 19 20 19 18 17 15 13 11 10 7 6 5 5 5 5 7 9 12 15 18 22 25 26 27 28 29 30 32 34 35 36 37 37 37 38 39 39 39 39 38 36 37 38 39 40 39 33 31 32 32 31 31 33 35 36 36 36 37 38
10 12 12 13 13 13 12 11 9 6 5 5 5 4 3 3 5 7 10 12 15 18 21 23 24 25 26 27 29 31 32 33 35 35 35 36 36 36 37 38 38 38 37 35 35 37 39 39 37 32 31 33 33 33 33 34 36 38 39 40 40 40
9 8 7 6 6 7 7 7 7 7 6 5 4 3 4 6 8 10 13 15 17 19 21 22 23 24 26 27 29 30 31 32 33 34 34 35 36 36 37 38 37 37 35 33 34 36 39 39 35 32 33 34 34 34 34 34 36 38 39 40 41 41
10 10 9 9 10 10 10 10 9 8 6 5 4 5 6 9 11 13 15 16 17 18 19 21 22 24 26 27 28 29 30 31 32 33 33 34 35 35 36 36 36 36 35 34 34 36 40 40 34 32 33 34 33 33 33 32 33 34 35 37 38 38
14 14 14 14 14 13 12 11 10 8 7 5 6 7 8 10 12 13 14 15 15 17 18 20 22 24 25 26 27 28 29 30 30 31 32 34 35 34 34 35 35 35 36 36 35 36 41 41 34 31 32 32 31 32 31 31 31 32 34 35 36 36
14 15 16 15 14 13 11 10 9 7 6 5 6 8 9 10 11 12 13 14 14 16 18 20 22 23 24 25 27 28 28 29 30 30 30 32 34 34 34 35 36 35 34 36 36 36 39 40 34 30 31 31 31 31 31 30 31 31 32 33 33 33
15 15 16 15 14 11 10 8 7 5 5 5 7 8 9 11 11 12 13 14 15 18 19 20 21 22 24 24 25 27 28 28 30 30 29 30 33 35 35 35 36 35 33 34 36 35 36 39 35 30 31 32 30 30 31 30 30 31 31 32 32 31
15 15 15 14 12 10 8 7 6 5 6 7 8 9 10 11 11 12 14 15 17 18 18 19 20 21 22 24 25 26 27 28 29 30 30 30 32 34 35 34 35 36 34 34 36 34 34 37 37 32 31 32 30 29 31 31 31 31 32 32 33 32
17 16 15 13 11 10 8 7 6 6 7 8 8 9 10 11 12 13 15 16 17 18 17 18 19 20 21 23 25 25 26 27 29 30 31 32 32 33 34 33 33 36 36 34 35 35 34 36 37 33 30 31 30 29 31 31 32 33 33 33 34 35
17 16 15 13 11 9 8 7 6 6 7 8 9 9 10 11 13 15 16 17 17 17 18 18 18 19 21 22 24 26 26 27 28 30 31 32 33 33 33 33 33 34 35 34 34 35 34 34 35 33 31 30 30 30 30 32 33 34 36 36 35 34
17 16 14 12 11 9 8 7 7 7 8 9 9 10 11 12 14 15 15 16 16 17 18 18 18 19 21 21 22 25 27 27 28 29 31 32 33 33 32 32 32 33 34 34 33 34 35 34 33 32 31 30 30 30 30 32 34 34 35 37 36 34
18 17 14 12 11 10 9 8 7 8 8 9 9 10 11 12 13 14 15 16 17 17 18 18 19 19 20 21 22 24 26 28 29 29 30 31 31 32 31 31 31 31 32 33 33 33 34 34 33 33 31 30 30 30 30 32 33 33 34 36 37 37
19 17 15 13 11 10 9 8 8 8 8 9 9 10 12 12 13 14 15 16 17 18 18 18 19 20 20 21 22 23 26 28 29 29 29 29 29 30 30 30 30 30 31 33 34 35 35 34 34 34 33 30 30 30 31 32 33 33 34 36 38 39
19 17 15 13 12 10 10 8 8 8 8 9 10 11 12 12 13 14 15 16 17 18 19 19 20 21 21 21 22 23 25 28 29 29 29 28 28 28 28 29 29 29 31 31 32 33 33 33 34 35 34 32 31 31 32 33 34 34 35 37 39 40
17 16 14 13 12 10 9 8 8 8 9 9 10 10 11 12 13 14 15 16 17 18 19 20 21 22 22 22 22 23 25 27 28 29 29 28 28 27 27 28 28 28 29 29 30 31 33 33 33 34 34 33 33 34 35 35 36 37 37 38 39 40
17 16 14 13 12 10 9 8 7 8 9 9 9 10 11 12 13 14 16 16 18 18 19 20 22 23 23 23 23 24 25 26 27 28 28 28 28 27 26 26 27 28 28 28 29 31 32 33 34 34 34 33 33 35 36 36 36 37 37 38 39 41
17 15 14 12 10 9 9 7 7 8 9 9 8 9 10 11 12 14 16 17 18 19 19 19 21 23 23 24 24 24 26 27 28 28 28 28 28 28 28 29 30 32 32 30 30 32 32 32 32 32 33 34 34 35 36 34 34 34 34 35 38 40
15 13 12 10 9 9 8 7 7 8 9 8 8 8 10 11 12 14 16 17 17 18 19 20 21 22 23 24 25 25 26 27 27 28 29 29 28 27 29 32 33 34 34 32 33 33 32 32 32 33 35 36 37 37 38 37 36 36 35 35 37 37
13 11 10 9 8 8 8 7 7 7 8 7 7 8 10 11 13 14 16 17 18 19 20 21 21 22 22 23 24 26 27 28 27 26 26 28 28 27 28 31 33 34 35 34 34 33 32 33 35 36 36 37 38 39 39 39 39 39 38 38 39 37
11 10 9 8 8 8 8 8 7 7 7 7 7 8 9 10 12 15 16 17 18 19 20 21 21 22 22 22 23 24 26 29 31 30 27 25 25 26 28 30 31 32 32 32 32 33 32 33 35 36 36 37 38 39 38 38 39 39 38 38 38 33
11 10 9 8 8 9 9 8 7 6 7 7 7 8 9 10 12 15 17 18 18 19 20 20 20 21 21 22 23 23 23 25 28 33 34 31 28 28 29 29 29 29 28 29 31 32 33 34 34 35 36 36 37 38 38 38 39 39 37 35 33 27
11 10 9 8 9 9 10 9 7 6 7 7 7 8 9 10 12 14 16 18 18 19 19 20 20 20 20 21 22 23 23 23 23 26 32 36 38 38 34 29 25 23 24 28 30 31 33 34 34 34 35 35 36 37 38 37 36 34 31 29 26 23
10 9 8 9 9 10 11 10 7 6 7 7 7 8 9 11 12 14 16 17 17 17 18 19 19 20 20 21 22 22 23 23 22 23 25 29 33 37 39 38 35 31 29 29 31 31 31 32 33 34 34 35 35 36 36 35 31 28 27 25 22 21
10 9 9 10 10 10 11 10 7 6 7 7 8 9 10 11 13 14 15 16 16 16 17 18 19 20 20 21 22 22 22 23 23 23 23 23 24 26 30 34 39 41 39 34 32 32 33 33 33 34 34 33 33 33 32 29 25 23 24 24 22 21
10 9 10 10 10 11 12 10 7 6 8 8 8 9 11 12 13 14 15 16 15 15 16 17 18 19 19 20 20 21 21 22 22 22 23 23 23 23 25 27 32 38 39 35 30 30 32 33 33 32 32 31 30 29 27 23 20 20 22 23 23 23

ECMWFFLT1_925_spd_033.txt.gz
Wind_Speed
12 12 12 12 13 13 13 14 13 13 13 13 13 13 13 13 12 12 12 12 13 14 14 15 15 15 16 16 17 17 17 18 18 17 17 18 18 19 19 20 21 22 23 23 24 25 25 25 25 26 26 26 25 25 24 24 26 27 27 27 27 27
14 14 13 12 12 11 11 11 11 11 11 11 11 11 11 10 10 10 11 11 11 12 12 13 14 14 15 15 15 16 17 17 17 17 17 17 18 19 20 21 21 22 23 23 24 24 25 25 26 27 28 29 29 29 29 28 28 28 29 29 30 30
15 14 13 12 11 10 9 9 9 10 10 10 10 10 10 10 9 9 9 9 9 10 11 12 12 13 13 15 16 17 18 18 17 17 17 18 19 20 21 22 23 24 24 24 25 26 26 27 27 28 29 29 30 30 31 31 31 31 31 31 31 31
15 15 14 12 12 10 9 9 9 10 10 10 10 10 10 9 9 8 7 7 7 8 8 9 10 11 13 15 17 18 19 19 19 19 19 20 21 22 23 24 25 26 26 27 27 28 28 29 30 30 31 31 31 32 32 32 32 33 33 33 33 32
16 17 16 15 14 12 11 11 10 10 11 11 11 11 10 10 9 9 8 6 5 5 5 6 8 10 12 15 17 19 20 20 20 20 21 22 23 24 24 25 26 27 28 28 29 29 30 31 31 31 31 31 31 32 33 33 33 33 33 34 35 35
16 16 17 17 16 15 15 14 13 12 12 12 12 12 11 11 11 10 8 5 3 2 4 5 8 10 13 15 17 19 20 21 21 21 21 22 23 25 25 26 27 28 28 29 29 30 30 30 30 29 29 28 29 29 31 32 32 32 32 33 34 35
14 16 17 18 18 18 18 18 17 15 14 14 13 12 12 11 10 9 7 4 1 2 4 5 8 10 12 14 16 18 20 21 21 21 22 23 25 26 27 28 28 28 29 29 29 30 29 29 28 28 28 27 26 27 28 29 30 31 31 32 33 34
14 16 18 19 20 20 20 20 19 18 16 15 14 13 13 12 10 9 6 4 2 2 3 5 7 10 12 14 16 18 20 21 22 22 23 24 26 28 29 29 29 29 29 30 29 29 29 28 27 27 27 26 26 25 27 28 29 30 31 32 33 33
13 17 19 21 21 21 21 21 21 20 19 17 16 15 14 13 11 10 7 5 3 2 3 5 7 9 11 14 16 19 21 22 23 24 25 26 28 29 29 30 30 29 29 30 30 29 28 28 27 26 26 25 25 25 27 28 29 30 31 32 33 33
12 16 19 20 21 21 21 21 21 21 20 19 18 17 16 14 13 11 9 7 5 4 4 6 8 11 13 16 18 21 23 24 25 26 28 29 29 30 30 30 30 31 31 30 30 29 28 28 27 26 25 25 25 26 28 29 30 31 33 34 35 36
11 15 17 18 20 21 21 22 22 21 21 20 19 18 17 16 14 13 11 9 7 6 6 8 10 13 15 18 21 23 25 27 28 29 30 31 31 30 31 31 31 32 33 33 32 31 30 29 28 26 24 25 27 28 29 31 32 33 35 37 38 38
12 14 15 17 20 22 22 23 23 23 23 22 20 19 19 17 15 14 12 10 8 7 8 10 12 15 17 20 23 25 27 28 29 31 32 32 32 32 32 32 32 32 32 34 34 34 32 30 29 27 25 24 26 29 31 33 35 35 35 37 38 39
10 12 14 18 21 23 24 24 23 23 23 22 20 19 18 16 15 14 12 10 8 8 10 12 14 17 19 22 24 26 27 29 30 31 32 32 33 33 33 33 33 33 33 34 35 34 33 32 30 29 28 26 25 27 30 33 36 36 36 37 37 39
10 13 16 20 23 24 25 24 22 22 21 20 19 16 14 14 13 13 11 9 9 10 12 15 17 19 21 23 25 26 27 28 29 30 31 31 32 33 33 33 33 33 33 34 35 34 33 33 32 30 29 28 26 26 27 30 33 34 34 34 33 33
13 17 20 22 23 24 24 24 22 21 20 18 16 14 14 13 13 11 10 9 11 13 15 17 19 20 22 23 24 26 27 28 28 29 30 30 31 32 32 32 32 33 33 33 34 35 35 34 34 32 29 28 27 27 27 28 29 30 30 30 28 28
15 18 20 21 22 23 23 22 21 20 18 16 15 15 14 13 12 11 10 11 13 15 16 18 19 20 22 22 24 25 26 26 27 27 28 29 30 31 32 32 32 32 31 31 32 34 35 35 35 33 30 29 28 28 28 28 28 28 28 28 27 27
15 16 17 18 19 20 19 19 17 17 16 16 16 15 14 13 11 10 11 12 14 16 17 19 20 21 22 23 24 25 25 25 26 27 27 28 29 30 31 32 32 32 32 31 32 34 36 35 34 33 31 29 28 28 29 28 27 27 27 27 26 26
15 16 17 17 17 17 16 16 17 17 17 17 16 14 12 11 10 10 12 13 15 17 18 19 20 21 22 23 24 24 24 25 26 26 27 28 28 29 30 30 31 32 32 32 32 33 36 36 34 32 30 29 28 29 28 27 27 27 27 27 26 26
17 18 18 17 17 17 17 17 18 18 17 16 14 13 11 10 11 12 14 15 15 16 16 17 19 21 21 22 23 24 24 24 25 25 25 27 28 29 30 30 31 31 31 32 32 33 36 38 35 31 30 29 28 29 29 28 27 27 27 27 26 26
18 18 18 18 18 18 18 19 19 18 17 15 13 12 11 11 12 13 13 14 15 15 15 16 18 19 20 21 22 23 23 24 24 24 24 25 27 29 29 30 31 31 30 31 32 32 34 37 35 31 30 29 28 28 29 28 28 28 29 28 27 26
16 17 18 19 20 20 20 19 19 17 15 13 12 11 11 11 12 13 13 14 14 14 14 15 16 17 18 20 21 21 23 23 23 23 23 24 25 28 29 29 30 31 31 31 32 32 33 36 36 33 31 29 27 27 28 30 29 30 30 29 28 28
17 18 20 21 22 21 20 19 18 16 14 12 11 11 10 11 12 13 14 14 14 14 14 15 16 17 18 19 20 21 21 22 22 23 23 24 25 27 28 28 28 31 32 32 32 32 32 34 36 33 30 29 28 27 28 30 30 31 32 32 32 32
19 20 22 23 22 21 21 19 17 15 13 12 11 11 11 12 13 13 14 14 14 14 14 15 16 17 17 18 19 21 21 20 21 22 23 24 26 27 28 28 28 30 32 31 31 32 32 32 33 33 31 29 28 28 28 30 32 32 34 34 33 33
21 21 22 23 23 22 21 19 17 15 13 12 12 12 12 12 13 14 14 14 13 14 14 15 15 16 17 18 18 20 21 20 20 22 23 24 26 27 28 28 28 29 31 32 30 31 31 31 31 32 32 30 29 29 29 31 32 33 34 34 33 33
23 24 24 24 24 23 21 19 17 15 13 12 12 12 12 13 14 15 14 14 13 13 13 14 15 15 16 17 17 19 21 21 20 21 22 24 25 27 27 27 27 28 30 31 31 30 31 31 31 33 34 32 31 31 30 31 32 32 33 35 35 35
25 25 24 24 24 23 21 19 17 15 13 13 12 12 13 14 14 15 14 13 13 13 13 14 15 15 16 16 17 18 20 21 21 22 23 23 24 25 27 27 26 27 29 30 31 31 31 31 32 34 36 35 33 32 31 32 33 33 34 36 37 37
26 24 24 24 24 23 21 18 16 15 14 13 13 13 14 14 14 14 13 13 13 13 14 14 14 15 15 15 16 18 19 20 22 23 23 23 23 24 25 26 25 26 27 29 30 31 31 30 32 35 36 35 32 31 31 32 33 34 35 36 37 39
23 23 23 24 24 23 21 18 16 15 14 14 14 14 14 14 14 14 13 13 12 12 13 15 15 15 15 15 16 17 18 20 21 23 23 23 24 24 24 25 25 25 26 27 28 30 31 31 32 34 34 33 33 33 33 34 35 35 36 36 38 39
22 23 24 25 25 24 21 18 16 15 14 14 14 14 14 14 14 14 13 12 12 12 13 15 16 16 16 16 17 17 18 19 20 22 23 23 23 24 23 23 23 23 26 28 29 29 31 32 33 34 33 33 34 35 34 35 35 35 35 36 37 39
25 25 26 27 26 24 21 18 16 15 15 15 14 13 13 14 14 13 13 12 12 13 13 14 16 17 18 18 18 18 19 19 20 22 22 22 23 24 24 24 25 26 29 31 30 30 33 34 33 33 33 34 34 35 35 34 33 33 33 33 35 37
27 27 27 27 25 23 21 18 16 16 15 14 13 13 13 13 13 13 13 12 12 13 13 14 16 17 18 19 19 19 19 19 19 21 23 23 22 22 24 26 28 28 29 30 30 31 32 33 32 32 34 35 35 36 37 36 35 34 35 35 36 37
27 27 26 25 23 22 19 17 16 16 15 14 13 14 14 13 13 13 13 12 12 13 13 15 16 17 18 19 20 21 21 20 18 18 21 22 21 20 21 24 26 27 27 28 29 28 28 30 32 33 34 34 34 35 36 36 36 36 36 36 36 34
24 25 25 24 22 20 18 17 16 15 15 14 14 14 14 13 13 13 13 12 12 12 13 15 16 17 18 18 19 20 23 24 23 20 18 18 18 19 20 21 23 22 22 24 26 26 26 28 30 31 32 32 33 33 33 33 34 34 33 33 32 28
26 26 25 23 21 19 18 16 15 14 14 14 14 14 14 13 13 13 12 11 11 12 13 15 16 17 17 18 18 18 20 23 25 25 22 19 17 18 20 19 17 16 17 19 23 25 26 27 28 29 30 30 31 31 31 31 31 31 29 27 25 21
26 25 22 20 19 18 17 15 14 13 14 14 14 15 14 14 13 13 12 11 11 12 13 15 16 16 17 17 18 18 19 19 21 24 26 26 23 21 18 14 12 12 16 20 22 23 24 26 27 28 28 29 29 29 29 29 28 26 24 21 19 18
22 20 18 18 17 16 15 14 12 13 14 15 15 15 15 14 13 12 12 11 11 13 14 14 15 16 16 16 17 17 18 18 17 19 22 25 26 25 22 19 16 16 18 21 22 22 22 25 26 27 27 28 27 26 26 26 25 24 22 19 17 17
19 18 18 17 16 15 14 13 12 13 14 15 15 15 15 14 13 12 11 11 11 13 14 14 15 15 15 16 16 16 16 17 17 18 18 20 21 23 24 26 26 24 24 25 25 24 24 25 26 27 27 26 25 25 26 26 26 26 26 24 22 20
18 17 17 16 15 15 14 13 12 14 15 14 15 15 15 14 13 12 11 11 11 12 13 14 14 14 14 15 15 15 16 16 17 18 18 18 18 20 22 26 28 28 27 27 25 25 27 28 27 26 26 24 23 24 25 25 24 24 25 26 26 25